Time,TemperatureF,DewpointF,PressureIn,WindDirection,WindDirectionDegrees,WindSpeedMPH,WindSpeedGustMPH,Humidity,HourlyPrecipIn,Conditions,Clouds,dailyrainin,SoftwareType,DateUTC
2013-04-21 00:00:00,41.4,28.6,30.32,East,90,4.0,13.0,60,0.00,,---,0.00,VWS V14.01,2013-04-21 05:00:00,
2013-04-21 00:02:00,41.5,28.7,30.32,SE,129,6.0,9.0,60,0.00,,---,0.00,VWS V14.01,2013-04-21 05:02:00,
2013-04-21 00:07:00,41.7,28.9,30.32,SE,139,6.0,9.0,60,0.00,,---,0.00,VWS V14.01,2013-04-21 05:07:00,
2013-04-21 00:12:00,41.8,29.0,30.31,ESE,112,9.0,12.0,60,0.00,,---,0.00,VWS V14.01,2013-04-21 05:12:00,
2013-04-21 00:18:00,41.9,29.0,30.32,ESE,103,9.0,12.0,60,0.00,,---,0.00,VWS V14.01,2013-04-21 05:18:00,
2013-04-21 00:23:00,41.9,29.5,30.31,East,91,3.0,12.0,61,0.00,,---,0.00,VWS V14.01,2013-04-21 05:23:00,
2013-04-21 00:28:00,42.0,29.5,30.31,ESE,108,7.0,13.0,61,0.00,,---,0.00,VWS V14.01,2013-04-21 05:28:00,
2013-04-21 00:30:00,42.0,29.5,30.31,ESE,113,6.0,13.0,61,0.00,,---,0.00,VWS V14.01,2013-04-21 05:30:00,
2013-04-21 00:33:00,42.2,29.7,30.30,ESE,108,10.0,10.0,61,0.00,,---,0.00,VWS V14.01,2013-04-21 05:33:00,
2013-04-21 00:38:00,42.4,29.9,30.30,SE,128,6.0,13.0,61,0.00,,---,0.00,VWS V14.01,2013-04-21 05:38:00,
2013-04-21 00:43:00,42.4,29.9,30.30,SE,131,2.0,13.0,61,0.00,,---,0.00,VWS V14.01,2013-04-21 05:43:00,
2013-04-21 00:48:00,42.6,29.7,30.29,ESE,121,6.0,13.0,60,0.00,,---,0.00,VWS V14.01,2013-04-21 05:48:00,
2013-04-21 00:53:00,42.7,29.8,30.29,SSE,152,4.0,13.0,60,0.00,,---,0.00,VWS V14.01,2013-04-21 05:53:00,
2013-04-21 00:58:00,42.7,29.4,30.29,SE,126,6.0,13.0,59,0.00,,---,0.00,VWS V14.01,2013-04-21 05:58:00,
2013-04-21 01:00:00,42.7,29.4,30.29,ENE,75,5.0,13.0,59,0.00,,---,0.00,VWS V14.01,2013-04-21 06:00:00,
2013-04-21 01:03:00,42.6,29.7,30.30,ESE,113,3.0,12.0,60,0.00,,---,0.00,VWS V14.01,2013-04-21 06:03:00,
2013-04-21 01:08:00,42.6,29.7,30.29,East,90,12.0,14.0,60,0.00,,---,0.00,VWS V14.01,2013-04-21 06:08:00,
2013-04-21 01:14:00,42.6,29.7,30.28,ESE,116,6.0,14.0,60,0.00,,---,0.00,VWS V14.01,2013-04-21 06:14:00,
2013-04-21 01:19:00,42.6,29.7,30.28,East,93,9.0,14.0,60,0.00,,---,0.00,VWS V14.01,2013-04-21 06:19:00,
2013-04-21 01:24:00,42.6,29.7,30.28,East,84,10.0,18.0,60,0.00,,---,0.00,VWS V14.01,2013-04-21 06:24:00,
2013-04-21 01:29:00,42.5,30.0,30.28,SE,141,4.0,18.0,61,0.00,,---,0.00,VWS V14.01,2013-04-21 06:29:00,
2013-04-21 01:30:00,42.5,30.0,30.28,SSE,153,5.0,18.0,61,0.00,,---,0.00,VWS V14.01,2013-04-21 06:30:00,
2013-04-21 01:34:00,42.5,30.0,30.30,ESE,110,4.0,12.0,61,0.00,,---,0.00,VWS V14.01,2013-04-21 06:34:00,
2013-04-21 01:39:00,42.4,29.9,30.30,SSW,194,3.0,12.0,61,0.00,,---,0.00,VWS V14.01,2013-04-21 06:39:00,
2013-04-21 01:44:00,42.3,29.8,30.30,SSE,153,1.0,12.0,61,0.00,,---,0.00,VWS V14.01,2013-04-21 06:44:00,
2013-04-21 01:49:00,42.3,30.2,30.30,East,86,2.0,12.0,62,0.00,,---,0.00,VWS V14.01,2013-04-21 06:49:00,
2013-04-21 01:54:00,42.2,30.1,30.30,SSE,162,6.0,12.0,62,0.00,,---,0.00,VWS V14.01,2013-04-21 06:54:00,
2013-04-21 01:59:00,42.1,30.4,30.30,East,101,4.0,7.0,63,0.00,,---,0.00,VWS V14.01,2013-04-21 06:59:00,
2013-04-21 02:00:00,42.1,30.4,30.30,ESE,110,5.0,12.0,63,0.00,,---,0.00,VWS V14.01,2013-04-21 07:00:00,
2013-04-21 02:05:00,42.0,30.3,30.29,SSE,164,1.0,12.0,63,0.00,,---,0.00,VWS V14.01,2013-04-21 07:05:00,
2013-04-21 02:10:00,42.1,30.0,30.29,ESE,121,2.0,15.0,62,0.00,,---,0.00,VWS V14.01,2013-04-21 07:10:00,
2013-04-21 02:15:00,42.1,30.0,30.29,SE,145,3.0,15.0,62,0.00,,---,0.00,VWS V14.01,2013-04-21 07:15:00,
2013-04-21 02:20:00,42.0,29.9,30.28,ESE,120,6.0,15.0,62,0.00,,---,0.00,VWS V14.01,2013-04-21 07:20:00,
2013-04-21 02:25:00,42.0,30.3,30.28,East,87,5.0,15.0,63,0.00,,---,0.00,VWS V14.01,2013-04-21 07:25:00,
2013-04-21 02:30:00,41.9,30.2,30.28,ESE,115,5.0,8.0,63,0.00,,---,0.00,VWS V14.01,2013-04-21 07:30:00,
2013-04-21 02:35:00,41.8,30.1,30.28,East,97,6.0,16.0,63,0.00,,---,0.00,VWS V14.01,2013-04-21 07:35:00,
2013-04-21 02:40:00,41.8,30.1,30.28,SSE,152,5.0,16.0,63,0.00,,---,0.00,VWS V14.01,2013-04-21 07:40:00,
2013-04-21 02:45:00,41.8,30.1,30.30,SW,214,1.0,16.0,63,0.00,,---,0.00,VWS V14.01,2013-04-21 07:45:00,
2013-04-21 02:50:00,41.8,30.1,30.32,SW,221,3.0,16.0,63,0.00,,---,0.00,VWS V14.01,2013-04-21 07:50:00,
2013-04-21 02:56:00,41.8,30.1,30.31,SE,142,3.0,16.0,63,0.00,,---,0.00,VWS V14.01,2013-04-21 07:56:00,
2013-04-21 03:00:00,41.8,30.5,30.30,East,88,8.0,16.0,64,0.00,,---,0.00,VWS V14.01,2013-04-21 08:00:00,
2013-04-21 03:01:00,41.8,30.1,30.29,East,83,5.0,13.0,63,0.00,,---,0.00,VWS V14.01,2013-04-21 08:01:00,
2013-04-21 03:06:00,41.7,30.0,30.29,ESE,108,8.0,13.0,63,0.00,,---,0.00,VWS V14.01,2013-04-21 08:06:00,
2013-04-21 03:11:00,41.7,30.0,30.29,East,98,7.0,13.0,63,0.00,,---,0.00,VWS V14.01,2013-04-21 08:11:00,
2013-04-21 03:16:00,41.7,30.0,30.29,SSE,158,2.0,13.0,63,0.00,,---,0.00,VWS V14.01,2013-04-21 08:16:00,
2013-04-21 03:21:00,41.6,30.0,30.30,SSE,157,2.0,13.0,63,0.00,,---,0.00,VWS V14.01,2013-04-21 08:21:00,
2013-04-21 03:26:00,41.5,30.2,30.29,East,91,4.0,13.0,64,0.00,,---,0.00,VWS V14.01,2013-04-21 08:26:00,
2013-04-21 03:30:00,41.5,30.2,30.29,ESE,116,3.0,13.0,64,0.00,,---,0.00,VWS V14.01,2013-04-21 08:30:00,
2013-04-21 03:31:00,41.4,30.1,30.30,ESE,123,6.0,7.0,64,0.00,,---,0.00,VWS V14.01,2013-04-21 08:31:00,
2013-04-21 03:36:00,41.3,30.1,30.30,ESE,115,3.0,7.0,64,0.00,,---,0.00,VWS V14.01,2013-04-21 08:36:00,
2013-04-21 03:41:00,41.3,30.4,30.29,ENE,72,2.0,10.0,65,0.00,,---,0.00,VWS V14.01,2013-04-21 08:41:00,
2013-04-21 03:47:00,41.2,30.3,30.28,SE,140,4.0,12.0,65,0.00,,---,0.00,VWS V14.01,2013-04-21 08:47:00,
2013-04-21 03:52:00,41.2,30.3,30.30,SSW,198,5.0,12.0,65,0.00,,---,0.00,VWS V14.01,2013-04-21 08:52:00,
2013-04-21 03:57:00,41.2,30.3,30.31,SW,221,4.0,12.0,65,0.00,,---,0.00,VWS V14.01,2013-04-21 08:57:00,
2013-04-21 04:00:00,41.2,30.3,30.31,East,82,3.0,12.0,65,0.00,,---,0.00,VWS V14.01,2013-04-21 09:00:00,
2013-04-21 04:02:00,41.3,30.4,30.31,SE,139,2.0,6.0,65,0.00,,---,0.00,VWS V14.01,2013-04-21 09:02:00,
2013-04-21 04:07:00,41.4,30.5,30.31,ESE,116,3.0,6.0,65,0.00,,---,0.00,VWS V14.01,2013-04-21 09:07:00,
2013-04-21 04:12:00,41.3,30.4,30.30,East,101,2.0,10.0,65,0.00,,---,0.00,VWS V14.01,2013-04-21 09:12:00,
2013-04-21 04:17:00,41.3,30.4,30.32,WNW,288,2.0,10.0,65,0.00,,---,0.00,VWS V14.01,2013-04-21 09:17:00,
2013-04-21 04:22:00,41.4,30.9,30.30,ENE,71,2.0,10.0,66,0.00,,---,0.00,VWS V14.01,2013-04-21 09:22:00,
2013-04-21 04:27:00,41.4,30.9,30.30,East,94,1.0,10.0,66,0.00,,---,0.00,VWS V14.01,2013-04-21 09:27:00,
2013-04-21 04:30:00,41.4,30.9,30.30,East,95,2.0,10.0,66,0.00,,---,0.00,VWS V14.01,2013-04-21 09:30:00,
2013-04-21 04:32:00,41.4,30.9,30.30,East,101,3.0,6.0,66,0.00,,---,0.00,VWS V14.01,2013-04-21 09:32:00,
2013-04-21 04:38:00,41.3,30.8,30.29,ESE,113,6.0,7.0,66,0.00,,---,0.00,VWS V14.01,2013-04-21 09:38:00,
2013-04-21 04:43:00,41.3,30.8,30.29,NE,53,2.0,7.0,66,0.00,,---,0.00,VWS V14.01,2013-04-21 09:43:00,
2013-04-21 04:48:00,41.3,31.2,30.29,East,90,5.0,7.0,67,0.00,,---,0.00,VWS V14.01,2013-04-21 09:48:00,
2013-04-21 04:53:00,41.2,31.1,30.30,East,98,3.0,7.0,67,0.00,,---,0.00,VWS V14.01,2013-04-21 09:53:00,
2013-04-21 04:58:00,41.2,31.1,30.30,ESE,117,2.0,7.0,67,0.00,,---,0.00,VWS V14.01,2013-04-21 09:58:00,
2013-04-21 05:00:00,41.2,31.1,30.30,SSE,153,4.0,7.0,67,0.00,,---,0.00,VWS V14.01,2013-04-21 10:00:00,
2013-04-21 05:03:00,41.2,31.5,30.30,ENE,69,3.0,6.0,68,0.00,,---,0.00,VWS V14.01,2013-04-21 10:03:00,
2013-04-21 05:08:00,41.1,31.4,30.29,East,91,3.0,6.0,68,0.00,,---,0.00,VWS V14.01,2013-04-21 10:08:00,
2013-04-21 05:13:00,41.1,31.4,30.29,East,88,3.0,8.0,68,0.00,,---,0.00,VWS V14.01,2013-04-21 10:13:00,
2013-04-21 05:18:00,41.1,31.7,30.29,ESE,103,3.0,8.0,69,0.00,,---,0.00,VWS V14.01,2013-04-21 10:18:00,
2013-04-21 05:23:00,41.1,31.7,30.29,East,79,3.0,8.0,69,0.00,,---,0.00,VWS V14.01,2013-04-21 10:23:00,
2013-04-21 05:29:00,41.2,31.8,30.29,ENE,72,6.0,8.0,69,0.00,,---,0.00,VWS V14.01,2013-04-21 10:29:00,
2013-04-21 05:30:00,41.2,31.8,30.29,ENE,76,4.0,8.0,69,0.00,,---,0.00,VWS V14.01,2013-04-21 10:30:00,
2013-04-21 05:34:00,41.2,31.8,30.29,East,93,7.0,10.0,69,0.00,,---,0.00,VWS V14.01,2013-04-21 10:34:00,
2013-04-21 05:39:00,41.3,32.3,30.29,ESE,106,2.0,10.0,70,0.00,,---,0.00,VWS V14.01,2013-04-21 10:39:00,
2013-04-21 05:44:00,41.3,32.3,30.28,East,79,6.0,12.0,70,0.00,,---,0.00,VWS V14.01,2013-04-21 10:44:00,
2013-04-21 05:49:00,41.3,32.3,30.29,SE,126,3.0,12.0,70,0.00,,---,0.00,VWS V14.01,2013-04-21 10:49:00,
2013-04-21 05:54:00,41.4,32.4,30.29,SSE,148,3.0,12.0,70,0.00,,---,0.00,VWS V14.01,2013-04-21 10:54:00,
2013-04-21 05:59:00,41.4,32.4,30.29,East,94,9.0,12.0,70,0.00,,---,0.00,VWS V14.01,2013-04-21 10:59:00,
2013-04-21 06:00:00,41.4,32.4,30.29,East,94,9.0,12.0,70,0.00,,---,0.00,VWS V14.01,2013-04-21 11:00:00,
2013-04-21 06:04:00,41.4,32.4,30.29,ESE,113,7.0,9.0,70,0.00,,---,0.00,VWS V14.01,2013-04-21 11:04:00,
2013-04-21 06:09:00,41.3,32.6,30.29,East,82,5.0,9.0,71,0.00,,---,0.00,VWS V14.01,2013-04-21 11:09:00,
2013-04-21 06:14:00,41.3,32.6,30.29,ESE,105,3.0,12.0,71,0.00,,---,0.00,VWS V14.01,2013-04-21 11:14:00,
2013-04-21 06:19:00,41.3,32.6,30.29,ENE,77,6.0,12.0,71,0.00,,---,0.00,VWS V14.01,2013-04-21 11:19:00,
2013-04-21 06:24:00,41.3,33.0,30.29,ENE,75,6.0,12.0,72,0.00,,---,0.00,VWS V14.01,2013-04-21 11:24:00,
2013-04-21 06:30:00,41.3,33.0,30.29,ESE,105,5.0,11.0,72,0.00,,---,0.00,VWS V14.01,2013-04-21 11:30:00,
2013-04-21 06:35:00,41.4,33.1,30.30,East,98,5.0,11.0,72,0.00,,---,0.00,VWS V14.01,2013-04-21 11:35:00,
2013-04-21 06:40:00,41.4,33.1,30.30,ENE,75,6.0,11.0,72,0.00,,---,0.00,VWS V14.01,2013-04-21 11:40:00,
2013-04-21 06:45:00,41.5,33.2,30.29,East,91,7.0,12.0,72,0.00,,---,0.00,VWS V14.01,2013-04-21 11:45:00,
2013-04-21 06:50:00,41.5,33.2,30.29,SE,145,3.0,12.0,72,0.00,,---,0.00,VWS V14.01,2013-04-21 11:50:00,
2013-04-21 06:55:00,41.6,33.3,30.30,East,88,6.0,12.0,72,0.00,,---,0.00,VWS V14.01,2013-04-21 11:55:00,
2013-04-21 07:00:00,41.7,33.0,30.30,ESE,113,3.0,8.0,71,0.00,,---,0.00,VWS V14.01,2013-04-21 12:00:00,
2013-04-21 07:05:00,41.8,33.1,30.31,East,94,2.0,8.0,71,0.00,,---,0.00,VWS V14.01,2013-04-21 12:05:00,
2013-04-21 07:10:00,41.9,33.2,30.31,East,94,9.0,10.0,71,0.00,,---,0.00,VWS V14.01,2013-04-21 12:10:00,
2013-04-21 07:15:00,42.0,33.3,30.31,ESE,110,4.0,11.0,71,0.00,,---,0.00,VWS V14.01,2013-04-21 12:15:00,
2013-04-21 07:20:00,42.1,33.4,30.30,ESE,113,4.0,11.0,71,0.00,,---,0.00,VWS V14.01,2013-04-21 12:20:00,
2013-04-21 07:26:00,42.2,33.5,30.31,East,101,3.0,11.0,71,0.00,,---,0.00,VWS V14.01,2013-04-21 12:26:00,
2013-04-21 07:30:00,42.2,33.5,30.31,East,100,6.0,12.0,71,0.00,,---,0.00,VWS V14.01,2013-04-21 12:30:00,
2013-04-21 07:31:00,42.3,33.6,30.31,ESE,103,4.0,10.0,71,0.00,,---,0.00,VWS V14.01,2013-04-21 12:31:00,
2013-04-21 07:36:00,42.4,33.7,30.31,SE,126,9.0,10.0,71,0.00,,---,0.00,VWS V14.01,2013-04-21 12:36:00,
2013-04-21 07:41:00,42.4,33.7,30.31,East,90,9.0,10.0,71,0.00,,---,0.00,VWS V14.01,2013-04-21 12:41:00,
2013-04-21 07:46:00,42.5,33.4,30.31,SSE,159,6.0,11.0,70,0.00,,---,0.00,VWS V14.01,2013-04-21 12:46:00,
2013-04-21 07:51:00,42.7,33.6,30.30,ESE,109,10.0,11.0,70,0.00,,---,0.00,VWS V14.01,2013-04-21 12:51:00,
2013-04-21 07:56:00,42.9,33.8,30.30,ESE,113,6.0,12.0,70,0.00,,---,0.00,VWS V14.01,2013-04-21 12:56:00,
2013-04-21 08:00:00,43.1,34.0,30.30,ESE,111,4.0,12.0,70,0.00,,---,0.00,VWS V14.01,2013-04-21 13:00:00,
2013-04-21 08:01:00,43.3,33.8,30.31,East,79,7.0,10.0,69,0.00,,---,0.00,VWS V14.01,2013-04-21 13:01:00,
2013-04-21 08:06:00,43.5,34.0,30.31,SE,128,2.0,11.0,69,0.00,,---,0.00,VWS V14.01,2013-04-21 13:06:00,
2013-04-21 08:11:00,43.7,34.2,30.30,ESE,114,8.0,11.0,69,0.00,,---,0.00,VWS V14.01,2013-04-21 13:11:00,
2013-04-21 08:17:00,43.9,34.4,30.31,SE,134,1.0,11.0,69,0.00,,---,0.00,VWS V14.01,2013-04-21 13:17:00,
2013-04-21 08:22:00,44.1,34.6,30.30,ESE,107,8.0,11.0,69,0.00,,---,0.00,VWS V14.01,2013-04-21 13:22:00,
2013-04-21 08:27:00,44.1,34.2,30.30,SSE,153,6.0,18.0,68,0.00,,---,0.00,VWS V14.01,2013-04-21 13:27:00,
2013-04-21 08:30:00,44.0,34.1,30.30,ESE,115,5.0,18.0,68,0.00,,---,0.00,VWS V14.01,2013-04-21 13:30:00,
2013-04-21 08:32:00,44.1,34.6,30.30,East,83,8.0,14.0,69,0.00,,---,0.00,VWS V14.01,2013-04-21 13:32:00,
2013-04-21 08:37:00,44.1,34.6,30.30,East,98,6.0,14.0,69,0.00,,---,0.00,VWS V14.01,2013-04-21 13:37:00,
2013-04-21 08:42:00,44.3,34.8,30.30,East,95,7.0,16.0,69,0.00,,---,0.00,VWS V14.01,2013-04-21 13:42:00,
2013-04-21 08:47:00,44.4,34.9,30.29,ESE,105,9.0,16.0,69,0.00,,---,0.00,VWS V14.01,2013-04-21 13:47:00,
2013-04-21 08:52:00,44.9,35.4,30.29,ESE,107,3.0,16.0,69,0.00,,---,0.00,VWS V14.01,2013-04-21 13:52:00,
2013-04-21 08:57:00,45.2,34.9,30.30,ESE,109,8.0,16.0,67,0.00,,---,0.00,VWS V14.01,2013-04-21 13:57:00,
2013-04-21 09:00:00,45.3,35.4,30.30,SE,126,4.0,16.0,68,0.00,,---,0.00,VWS V14.01,2013-04-21 14:00:00,
2013-04-21 09:02:00,45.7,35.8,30.30,ESE,114,5.0,11.0,68,0.00,,---,0.00,VWS V14.01,2013-04-21 14:02:00,
2013-04-21 09:08:00,46.2,35.9,30.29,SSE,152,3.0,12.0,67,0.00,,---,0.00,VWS V14.01,2013-04-21 14:08:00,
2013-04-21 09:13:00,46.6,35.9,30.29,South,179,5.0,12.0,66,0.00,,---,0.00,VWS V14.01,2013-04-21 14:13:00,
2013-04-21 09:18:00,47.1,36.0,30.29,SSE,150,9.0,12.0,65,0.00,,---,0.00,VWS V14.01,2013-04-21 14:18:00,
2013-04-21 09:23:00,47.3,36.5,30.29,ESE,115,6.0,16.0,66,0.00,,---,0.00,VWS V14.01,2013-04-21 14:23:00,
2013-04-21 09:28:00,48.0,36.8,30.29,ESE,102,9.0,16.0,65,0.00,,---,0.00,VWS V14.01,2013-04-21 14:28:00,
2013-04-21 09:30:00,48.0,36.8,30.29,SSE,155,11.0,16.0,65,0.00,,---,0.00,VWS V14.01,2013-04-21 14:30:00,
2013-04-21 09:33:00,48.3,37.1,30.29,East,92,7.0,12.0,65,0.00,,---,0.00,VWS V14.01,2013-04-21 14:33:00,
2013-04-21 09:38:00,48.6,36.6,30.29,SE,140,6.0,14.0,63,0.00,,---,0.00,VWS V14.01,2013-04-21 14:38:00,
2013-04-21 09:43:00,48.9,36.9,30.29,SSE,168,13.0,14.0,63,0.00,,---,0.00,VWS V14.01,2013-04-21 14:43:00,
2013-04-21 09:48:00,48.7,36.7,30.29,ESE,106,5.0,16.0,63,0.00,,---,0.00,VWS V14.01,2013-04-21 14:48:00,
2013-04-21 09:53:00,48.5,36.9,30.28,SSW,201,7.0,16.0,64,0.00,,---,0.00,VWS V14.01,2013-04-21 14:53:00,
2013-04-21 09:58:00,49.3,38.0,30.28,ESE,103,6.0,19.0,65,0.00,,---,0.00,VWS V14.01,2013-04-21 14:58:00,
2013-04-21 10:00:00,49.4,38.1,30.28,South,184,11.0,19.0,65,0.00,,---,0.00,VWS V14.01,2013-04-21 15:00:00,
2013-04-21 10:04:00,50.1,38.0,30.28,SE,146,12.0,14.0,63,0.00,,---,0.00,VWS V14.01,2013-04-21 15:04:00,
2013-04-21 10:09:00,50.3,37.8,30.28,SE,145,4.0,19.0,62,0.00,,---,0.00,VWS V14.01,2013-04-21 15:09:00,
2013-04-21 10:14:00,50.8,38.3,30.28,SE,142,5.0,19.0,62,0.00,,---,0.00,VWS V14.01,2013-04-21 15:14:00,
2013-04-21 10:19:00,51.5,39.3,30.28,SSE,159,4.0,19.0,63,0.00,,---,0.00,VWS V14.01,2013-04-21 15:19:00,
2013-04-21 10:24:00,51.8,38.4,30.28,SSE,156,4.0,19.0,60,0.00,,---,0.00,VWS V14.01,2013-04-21 15:24:00,
2013-04-21 10:29:00,51.9,38.9,30.28,East,98,6.0,19.0,61,0.00,,---,0.00,VWS V14.01,2013-04-21 15:29:00,
2013-04-21 10:30:00,51.9,38.9,30.28,ESE,110,6.0,19.0,61,0.00,,---,0.00,VWS V14.01,2013-04-21 15:30:00,
2013-04-21 10:34:00,51.7,38.7,30.28,SE,146,5.0,13.0,61,0.00,,---,0.00,VWS V14.01,2013-04-21 15:34:00,
2013-04-21 10:39:00,52.0,39.4,30.28,SE,128,9.0,19.0,62,0.00,,---,0.00,VWS V14.01,2013-04-21 15:39:00,
2013-04-21 10:44:00,52.7,39.6,30.27,SE,136,7.0,19.0,61,0.00,,---,0.00,VWS V14.01,2013-04-21 15:44:00,
2013-04-21 10:49:00,53.3,40.2,30.27,ESE,103,6.0,19.0,61,0.00,,---,0.00,VWS V14.01,2013-04-21 15:49:00,
2013-04-21 10:54:00,54.3,40.7,30.27,SE,146,6.0,19.0,60,0.00,,---,0.00,VWS V14.01,2013-04-21 15:54:00,
2013-04-21 11:00:00,54.8,40.8,30.27,SSE,158,8.0,11.0,59,0.00,,---,0.00,VWS V14.01,2013-04-21 16:00:00,
2013-04-21 11:05:00,55.3,41.2,30.26,ESE,112,6.0,18.0,59,0.00,,---,0.00,VWS V14.01,2013-04-21 16:05:00,
2013-04-21 11:10:00,56.0,41.9,30.26,SE,129,10.0,18.0,59,0.00,,---,0.00,VWS V14.01,2013-04-21 16:10:00,
2013-04-21 11:15:00,56.4,40.9,30.26,SE,134,7.0,18.0,56,0.00,,---,0.00,VWS V14.01,2013-04-21 16:15:00,
2013-04-21 11:20:00,56.2,40.7,30.26,SSE,162,6.0,18.0,56,0.00,,---,0.00,VWS V14.01,2013-04-21 16:20:00,
2013-04-21 11:25:00,56.6,41.1,30.25,ESE,113,6.0,18.0,56,0.00,,---,0.00,VWS V14.01,2013-04-21 16:25:00,
2013-04-21 11:30:00,57.2,42.1,30.26,East,100,4.0,11.0,57,0.00,,---,0.00,VWS V14.01,2013-04-21 16:30:00,
2013-04-21 11:35:00,57.5,41.9,30.25,SE,136,14.0,15.0,56,0.00,,---,0.00,VWS V14.01,2013-04-21 16:35:00,
2013-04-21 11:40:00,58.2,42.6,30.25,ESE,105,8.0,15.0,56,0.00,,---,0.00,VWS V14.01,2013-04-21 16:40:00,
2013-04-21 11:45:00,58.4,42.3,30.25,NW,312,1.0,16.0,55,0.00,,---,0.00,VWS V14.01,2013-04-21 16:45:00,
2013-04-21 11:51:00,58.9,43.2,30.25,South,169,10.0,16.0,56,0.00,,---,0.00,VWS V14.01,2013-04-21 16:51:00,
2013-04-21 11:56:00,59.6,42.5,30.25,SE,134,9.0,16.0,53,0.00,,---,0.00,VWS V14.01,2013-04-21 16:56:00,
2013-04-21 16:14:00,65.6,41.9,30.13,SE,129,10.0,16.0,42,0.00,,---,0.00,VWS V14.01,2013-04-21 21:14:00,
2013-04-21 16:19:00,65.5,41.2,30.13,SSW,212,10.0,16.0,41,0.00,,---,0.00,VWS V14.01,2013-04-21 21:19:00,
2013-04-21 16:24:00,65.2,41.5,30.13,West,278,5.0,17.0,42,0.00,,---,0.00,VWS V14.01,2013-04-21 21:24:00,
2013-04-21 16:29:00,65.2,42.2,30.12,SSW,207,4.0,17.0,43,0.00,,---,0.00,VWS V14.01,2013-04-21 21:29:00,
2013-04-21 16:30:00,65.2,42.2,30.12,South,185,13.0,17.0,43,0.00,,---,0.00,VWS V14.01,2013-04-21 21:30:00,
2013-04-21 16:34:00,65.0,42.6,30.12,SSW,201,9.0,13.0,44,0.00,,---,0.00,VWS V14.01,2013-04-21 21:34:00,
2013-04-21 16:39:00,64.7,42.9,30.12,SSW,193,1.0,15.0,45,0.00,,---,0.00,VWS V14.01,2013-04-21 21:39:00,
2013-04-21 16:44:00,64.7,42.9,30.12,SW,214,3.0,15.0,45,0.00,,---,0.00,VWS V14.01,2013-04-21 21:44:00,
2013-04-21 16:49:00,64.7,42.9,30.12,ESE,105,7.0,15.0,45,0.00,,---,0.00,VWS V14.01,2013-04-21 21:49:00,
2013-04-21 16:54:00,65.0,43.2,30.12,South,186,7.0,16.0,45,0.00,,---,0.00,VWS V14.01,2013-04-21 21:54:00,
2013-04-21 16:59:00,65.2,40.3,30.11,SE,146,7.0,10.0,40,0.00,,---,0.00,VWS V14.01,2013-04-21 21:59:00,
2013-04-21 17:00:00,65.2,40.3,30.11,SE,136,7.0,16.0,40,0.00,,---,0.00,VWS V14.01,2013-04-21 22:00:00,
2013-04-21 17:04:00,65.4,40.5,30.11,South,187,5.0,14.0,40,0.00,,---,0.00,VWS V14.01,2013-04-21 22:04:00,
2013-04-21 17:09:00,65.9,40.9,30.11,WSW,240,7.0,14.0,40,0.00,,---,0.00,VWS V14.01,2013-04-21 22:09:00,
2013-04-21 17:15:00,66.0,39.0,30.11,SSW,201,5.0,17.0,37,0.00,,---,0.00,VWS V14.01,2013-04-21 22:15:00,
2013-04-21 17:20:00,65.8,39.5,30.11,SSW,212,5.0,17.0,38,0.00,,---,0.00,VWS V14.01,2013-04-21 22:20:00,